TimePDT,TemperatureF,Dew PointF,Humidity,Sea Level PressureIn,VisibilityMPH,Wind Direction,Wind SpeedMPH,Gust SpeedMPH,PrecipitationIn,Events,Conditions,WindDirDegrees,DateUTC
12:15 AM,53.6,32.0,44,30.20,10.0,Calm,Calm,-,N/A,,Clear,0,2013-06-09 07:15:00
12:35 AM,53.6,32.0,44,30.19,10.0,Calm,Calm,-,N/A,,Clear,0,2013-06-09 07:35:00
12:55 AM,53.6,32.0,44,30.19,10.0,Calm,Calm,-,N/A,,Clear,0,2013-06-09 07:55:00
1:15 AM,53.6,32.0,44,30.19,10.0,Calm,Calm,-,N/A,,Clear,0,2013-06-09 08:15:00
1:35 AM,53.6,32.0,44,30.19,10.0,Calm,Calm,-,N/A,,Clear,0,2013-06-09 08:35:00
1:55 AM,51.8,32.0,47,30.18,10.0,Calm,Calm,-,N/A,,Clear,0,2013-06-09 08:55:00
2:15 AM,51.8,32.0,47,30.18,10.0,Calm,Calm,-,N/A,,Clear,0,2013-06-09 09:15:00
2:35 AM,51.8,32.0,47,30.17,10.0,Calm,Calm,-,N/A,,Clear,0,2013-06-09 09:35:00
2:55 AM,51.8,32.0,47,30.17,10.0,WSW,3.5,-,N/A,,Clear,250,2013-06-09 09:55:00
3:15 AM,51.8,32.0,47,30.17,10.0,SSW,3.5,-,N/A,,Clear,210,2013-06-09 10:15:00
3:35 AM,51.8,32.0,47,30.17,10.0,West,4.6,-,N/A,,Clear,270,2013-06-09 10:35:00
3:55 AM,51.8,32.0,47,30.17,10.0,Calm,Calm,-,N/A,,Clear,0,2013-06-09 10:55:00
4:15 AM,51.8,28.4,41,30.16,10.0,South,3.5,-,N/A,,Clear,170,2013-06-09 11:15:00
4:35 AM,51.8,28.4,41,30.17,10.0,Calm,Calm,-,N/A,,Clear,0,2013-06-09 11:35:00
4:55 AM,50.0,26.6,40,30.17,10.0,Calm,Calm,-,N/A,,Clear,0,2013-06-09 11:55:00
5:15 AM,50.0,32.0,50,30.17,10.0,West,4.6,-,N/A,,Clear,260,2013-06-09 12:15:00
5:35 AM,48.2,28.4,46,30.17,10.0,West,4.6,-,N/A,,Clear,270,2013-06-09 12:35:00
5:55 AM,48.2,26.6,43,30.17,10.0,Calm,Calm,-,N/A,,Clear,0,2013-06-09 12:55:00
6:15 AM,50.0,24.8,37,30.17,10.0,Calm,Calm,-,N/A,,Clear,0,2013-06-09 13:15:00
6:35 AM,51.8,28.4,41,30.17,10.0,Calm,Calm,-,N/A,,Clear,0,2013-06-09 13:35:00
6:55 AM,55.4,30.2,38,30.18,10.0,Calm,Calm,-,N/A,,Clear,0,2013-06-09 13:55:00
7:15 AM,60.8,33.8,36,30.18,10.0,Calm,Calm,-,N/A,,Clear,0,2013-06-09 14:15:00
7:35 AM,66.2,32.0,28,30.18,10.0,WSW,5.8,-,N/A,,Clear,240,2013-06-09 14:35:00
7:55 AM,68.0,30.2,24,30.18,10.0,WSW,6.9,-,N/A,,Clear,250,2013-06-09 14:55:00
8:15 AM,69.8,26.6,20,30.18,10.0,West,5.8,-,N/A,,Clear,260,2013-06-09 15:15:00
8:35 AM,71.6,26.6,19,30.19,10.0,WSW,6.9,-,N/A,,Clear,250,2013-06-09 15:35:00
8:55 AM,73.4,21.2,14,30.18,10.0,SW,5.8,-,N/A,,Clear,230,2013-06-09 15:55:00
9:15 AM,73.4,23.0,15,30.18,10.0,West,9.2,-,N/A,,Clear,270,2013-06-09 16:15:00
9:35 AM,75.2,21.2,13,30.18,10.0,West,9.2,-,N/A,,Clear,270,2013-06-09 16:35:00
9:55 AM,75.2,21.2,13,30.18,10.0,WSW,9.2,-,N/A,,Clear,250,2013-06-09 16:55:00
10:15 AM,77.0,19.4,12,30.18,10.0,West,11.5,-,N/A,,Clear,260,2013-06-09 17:15:00
10:35 AM,77.0,19.4,12,30.18,10.0,SSW,4.6,-,N/A,,Clear,200,2013-06-09 17:35:00
10:55 AM,78.8,19.4,11,30.19,10.0,West,12.7,18.4,N/A,,Clear,270,2013-06-09 17:55:00
11:15 AM,77.0,19.4,12,30.20,10.0,West,11.5,-,N/A,,Clear,270,2013-06-09 18:15:00
11:35 AM,73.4,19.4,13,30.20,10.0,West,13.8,-,N/A,,Clear,260,2013-06-09 18:35:00
11:55 AM,75.2,21.2,13,30.20,10.0,WSW,8.1,-,N/A,,Clear,250,2013-06-09 18:55:00
12:15 PM,78.8,15.8,9,30.20,10.0,SSE,8.1,18.4,N/A,,Clear,150,2013-06-09 19:15:00
12:35 PM,77.0,15.8,10,30.21,10.0,South,6.9,-,N/A,,Clear,170,2013-06-09 19:35:00
12:55 PM,77.0,12.2,9,30.20,10.0,SSW,9.2,-,N/A,,Clear,200,2013-06-09 19:55:00
1:15 PM,78.8,8.6,7,30.20,10.0,SW,6.9,-,N/A,,Clear,220,2013-06-09 20:15:00
1:35 PM,78.8,8.6,7,30.20,10.0,SSW,5.8,-,N/A,,Clear,200,2013-06-09 20:35:00
1:55 PM,78.8,10.4,7,30.20,7.0,South,9.2,26.5,N/A,,Clear,190,2013-06-09 20:55:00
2:15 PM,78.8,8.6,7,30.19,10.0,SW,8.1,17.3,N/A,,Clear,230,2013-06-09 21:15:00
2:35 PM,77.0,14.0,9,30.18,10.0,SW,9.2,16.1,N/A,,Clear,230,2013-06-09 21:35:00
2:55 PM,77.0,17.6,11,30.18,10.0,SW,8.1,-,N/A,,Clear,220,2013-06-09 21:55:00
3:15 PM,77.0,14.0,9,30.18,4.0,South,8.1,-,N/A,,Haze,170,2013-06-09 22:15:00
3:35 PM,73.4,19.4,13,30.18,5.0,SW,5.8,-,N/A,,Haze,230,2013-06-09 22:35:00
3:55 PM,73.4,19.4,13,30.18,10.0,SW,5.8,-,N/A,,Clear,230,2013-06-09 22:55:00
4:15 PM,75.2,15.8,11,30.17,10.0,SSW,5.8,18.4,N/A,,Clear,210,2013-06-09 23:15:00
4:35 PM,73.4,19.4,13,30.17,10.0,SSW,5.8,-,N/A,,Clear,200,2013-06-09 23:35:00
4:55 PM,73.4,21.2,14,30.16,10.0,SW,8.1,23.0,N/A,,Clear,220,2013-06-09 23:55:00
5:15 PM,73.4,21.2,14,30.15,10.0,SSW,8.1,18.4,N/A,,Clear,200,2013-06-10 00:15:00
5:35 PM,71.6,21.2,15,30.15,10.0,South,9.2,18.4,N/A,,Clear,190,2013-06-10 00:35:00
5:55 PM,71.6,15.8,12,30.14,10.0,SW,10.4,18.4,N/A,,Clear,230,2013-06-10 00:55:00
6:15 PM,71.6,14.0,11,30.14,10.0,SSW,9.2,16.1,N/A,,Clear,200,2013-06-10 01:15:00
6:35 PM,69.8,12.2,11,30.14,10.0,WSW,10.4,17.3,N/A,,Clear,240,2013-06-10 01:35:00
6:55 PM,69.8,14.0,12,30.14,10.0,SSW,5.8,19.6,N/A,,Clear,200,2013-06-10 01:55:00
7:15 PM,68.0,14.0,12,30.15,10.0,SSW,9.2,-,N/A,,Clear,200,2013-06-10 02:15:00
7:35 PM,68.0,10.4,11,30.15,10.0,SSW,4.6,16.1,N/A,,Clear,200,2013-06-10 02:35:00
7:55 PM,66.2,5.0,9,30.14,10.0,WSW,4.6,-,N/A,,Clear,240,2013-06-10 02:55:00
8:15 PM,64.4,8.6,11,30.15,10.0,SW,3.5,-,N/A,,Clear,230,2013-06-10 03:15:00
8:35 PM,64.4,14.0,14,30.15,10.0,SW,3.5,-,N/A,,Clear,230,2013-06-10 03:35:00
8:55 PM,60.8,19.4,20,30.16,10.0,SW,4.6,-,N/A,,Clear,230,2013-06-10 03:55:00
9:15 PM,59.0,23.0,25,30.16,10.0,Calm,Calm,-,N/A,,Clear,0,2013-06-10 04:15:00
9:35 PM,57.2,19.4,23,30.16,10.0,South,4.6,-,N/A,,Clear,190,2013-06-10 04:35:00
9:55 PM,53.6,19.4,26,30.16,10.0,SSE,3.5,-,N/A,,Clear,160,2013-06-10 04:55:00
10:15 PM,53.6,17.6,24,30.17,10.0,Calm,Calm,-,N/A,,Clear,0,2013-06-10 05:15:00
10:35 PM,51.8,14.0,22,30.17,10.0,Calm,Calm,-,N/A,,Clear,0,2013-06-10 05:35:00
10:55 PM,50.0,12.2,22,30.17,10.0,Calm,Calm,-,N/A,,Clear,0,2013-06-10 05:55:00
11:15 PM,50.0,12.2,22,30.16,10.0,South,3.5,-,N/A,,Clear,190,2013-06-10 06:15:00
11:35 PM,46.4,12.2,25,30.16,10.0,Calm,Calm,-,N/A,,Clear,0,2013-06-10 06:35:00
11:55 PM,44.6,10.4,25,30.16,10.0,Calm,Calm,-,N/A,,Clear,0,2013-06-10 06:55:00